Tracking 25701 objects as of 4-Jul-2022
HD Live streaming from Space Station
objects crossing your sky now

CZ-2C DEB

Track CZ-2C DEB now!
10-day predictions


NORAD ID: 40263
Int'l Code: 2014-059C
Perigee: 645.4 km
Apogee: 797.3 km
Inclination: 98.2 °
Period: 99.1 minutes
Semi major axis: 7092 km
RCS: Unknown
Launch date: September 28, 2014
Source: People's Republic of China (PRC)
Launch site: Jiuquan Satellite Launch Center, China (JSC)

Note: This is SATELLITE DEBRIS
aabbcc
Your satellite tracking list
Your tracking list is empty




NASA's NSSDC Master Catalog

Two Line Element Set (TLE):
1 40263U 14059C   22184.48476433  .00001825  00000-0  41655-3 0  9990
2 40263  98.2366 271.5423 0107028 167.7637 192.6197 14.53507412411025
Source of the keplerian elements: AFSPC